Time,TemperatureF,DewpointF,PressureIn,WindDirection,WindDirectionDegrees,WindSpeedMPH,WindSpeedGustMPH,Humidity,HourlyPrecipIn,Conditions,Clouds,dailyrainin,SoftwareType,DateUTC
2013-09-02 00:02:00,73.4,72.5,29.96,SSE,159,0.0,0.0,97,0.00,,,1.16,meteohub,2013-09-02 04:02:00,
2013-09-02 00:07:00,73.4,72.5,29.96,SSE,159,0.0,4.0,97,0.00,,,0.00,meteohub,2013-09-02 04:07:00,
2013-09-02 00:12:00,73.4,72.5,29.96,SSE,160,0.0,5.0,97,0.00,,,0.00,meteohub,2013-09-02 04:12:00,
2013-09-02 00:17:00,73.6,72.7,29.96,SSE,160,0.0,5.0,97,0.00,,,0.00,meteohub,2013-09-02 04:17:00,
2013-09-02 00:22:00,73.6,72.7,29.95,South,187,5.0,5.0,97,0.00,,,0.00,meteohub,2013-09-02 04:22:00,
2013-09-02 00:27:00,73.6,72.7,29.95,SSW,200,0.0,5.0,97,0.00,,,0.00,meteohub,2013-09-02 04:27:00,
2013-09-02 00:32:00,73.6,72.7,29.96,SSW,200,2.0,6.0,97,0.00,,,0.00,meteohub,2013-09-02 04:32:00,
2013-09-02 00:42:00,73.6,72.3,29.95,SSW,201,3.0,6.0,96,0.00,,,0.00,meteohub,2013-09-02 04:42:00,
2013-09-02 00:47:00,73.6,72.3,29.95,SSW,200,2.0,7.0,96,0.00,,,0.00,meteohub,2013-09-02 04:47:00,
2013-09-02 00:52:00,73.6,72.7,29.95,SSW,200,2.0,7.0,97,0.00,,,0.00,meteohub,2013-09-02 04:52:00,
2013-09-02 00:57:00,73.6,72.3,29.95,South,191,4.0,7.0,96,0.00,,,0.00,meteohub,2013-09-02 04:57:00,
2013-09-02 01:02:00,73.6,72.7,29.95,South,180,2.0,6.0,97,0.00,,,0.00,meteohub,2013-09-02 05:02:00,
2013-09-02 01:07:00,73.6,72.7,29.95,South,184,2.0,8.0,97,0.00,,,0.00,meteohub,2013-09-02 05:07:00,
2013-09-02 01:12:00,73.6,72.3,29.95,South,190,2.0,8.0,96,0.00,,,0.00,meteohub,2013-09-02 05:12:00,
2013-09-02 01:17:00,73.6,72.7,29.95,South,190,0.0,8.0,97,0.00,,,0.00,meteohub,2013-09-02 05:17:00,
2013-09-02 01:22:00,73.6,72.7,29.95,SSW,192,0.0,6.0,97,0.00,,,0.00,meteohub,2013-09-02 05:22:00,
2013-09-02 01:27:00,73.6,72.7,29.95,SSW,192,0.0,5.0,97,0.00,,,0.00,meteohub,2013-09-02 05:27:00,
2013-09-02 01:32:00,73.6,72.7,29.95,SSW,192,0.0,4.0,97,0.00,,,0.00,meteohub,2013-09-02 05:32:00,
2013-09-02 01:37:00,73.4,72.5,29.95,SSW,192,0.0,4.0,97,0.00,,,0.00,meteohub,2013-09-02 05:37:00,
2013-09-02 01:42:00,73.4,72.5,29.95,SSW,192,0.0,3.0,97,0.00,,,0.00,meteohub,2013-09-02 05:42:00,
2013-09-02 01:47:00,73.4,72.5,29.95,SSW,192,0.0,3.0,97,0.00,,,0.00,meteohub,2013-09-02 05:47:00,
2013-09-02 01:52:00,73.4,72.5,29.95,SSW,192,0.0,3.0,97,0.00,,,0.00,meteohub,2013-09-02 05:52:00,
2013-09-02 01:57:00,73.4,72.5,29.95,South,191,0.0,0.0,97,0.00,,,0.00,meteohub,2013-09-02 05:57:00,
2013-09-02 02:02:00,73.4,72.5,29.95,SSW,192,0.0,0.0,97,0.00,,,0.00,meteohub,2013-09-02 06:02:00,
2013-09-02 02:07:00,73.6,72.7,29.94,SSW,192,0.0,0.0,97,0.00,,,0.00,meteohub,2013-09-02 06:07:00,
2013-09-02 02:12:00,73.4,72.5,29.94,SSW,192,0.0,0.0,97,0.00,,,0.00,meteohub,2013-09-02 06:12:00,
2013-09-02 02:17:00,73.4,72.5,29.94,SSW,192,0.0,0.0,97,0.00,,,0.00,meteohub,2013-09-02 06:17:00,
2013-09-02 02:22:00,73.2,72.3,29.94,SSW,192,0.0,0.0,97,0.00,,,0.00,meteohub,2013-09-02 06:22:00,
2013-09-02 02:27:00,73.2,72.3,29.94,SSW,192,0.0,0.0,97,0.00,,,0.00,meteohub,2013-09-02 06:27:00,
2013-09-02 02:32:00,73.2,72.3,29.94,SSW,192,0.0,0.0,97,0.00,,,0.00,meteohub,2013-09-02 06:32:00,
2013-09-02 02:37:00,73.2,72.3,29.94,South,191,0.0,0.0,97,0.00,,,0.00,meteohub,2013-09-02 06:37:00,
2013-09-02 02:42:00,73.2,72.3,29.94,South,191,0.0,0.0,97,0.00,,,0.00,meteohub,2013-09-02 06:42:00,
2013-09-02 02:47:00,73.2,72.3,29.94,SSW,192,0.0,0.0,97,0.00,,,0.00,meteohub,2013-09-02 06:47:00,
2013-09-02 02:52:00,73.2,72.3,29.94,South,191,0.0,0.0,97,0.00,,,0.00,meteohub,2013-09-02 06:52:00,
2013-09-02 02:57:00,73.0,72.1,29.94,SSW,192,0.0,0.0,97,0.00,,,0.00,meteohub,2013-09-02 06:57:00,
2013-09-02 03:02:00,73.0,72.1,29.94,SSW,192,0.0,0.0,97,0.00,,,0.00,meteohub,2013-09-02 07:02:00,
2013-09-02 03:07:00,72.9,72.0,29.94,SSW,192,0.0,0.0,97,0.00,,,0.00,meteohub,2013-09-02 07:07:00,
2013-09-02 03:12:00,72.9,72.0,29.94,South,191,0.0,0.0,97,0.00,,,0.00,meteohub,2013-09-02 07:12:00,
2013-09-02 03:17:00,72.7,71.8,29.94,SSW,192,0.0,0.0,97,0.00,,,0.00,meteohub,2013-09-02 07:17:00,
2013-09-02 03:22:00,72.7,71.8,29.94,SSW,192,0.0,0.0,97,0.00,,,0.00,meteohub,2013-09-02 07:22:00,
2013-09-02 03:27:00,72.7,71.8,29.94,SSW,192,0.0,0.0,97,0.00,,,0.00,meteohub,2013-09-02 07:27:00,
2013-09-02 03:32:00,72.5,71.6,29.94,South,191,0.0,1.0,97,0.00,,,0.00,meteohub,2013-09-02 07:32:00,
2013-09-02 03:37:00,72.5,71.6,29.94,South,191,0.0,1.0,97,0.00,,,0.00,meteohub,2013-09-02 07:37:00,
2013-09-02 03:42:00,72.7,72.1,29.94,South,191,0.0,2.0,98,0.00,,,0.00,meteohub,2013-09-02 07:42:00,
2013-09-02 03:47:00,72.7,72.1,29.95,South,191,0.0,2.0,98,0.00,,,0.00,meteohub,2013-09-02 07:47:00,
2013-09-02 03:52:00,72.7,72.1,29.95,South,191,0.0,2.0,98,0.00,,,0.00,meteohub,2013-09-02 07:52:00,
2013-09-02 03:57:00,72.9,72.3,29.95,SSW,192,0.0,2.0,98,0.00,,,0.00,meteohub,2013-09-02 07:57:00,
2013-09-02 04:02:00,72.9,72.3,29.95,SSW,192,0.0,2.0,98,0.00,,,0.00,meteohub,2013-09-02 08:02:00,
2013-09-02 04:07:00,72.9,72.3,29.95,South,191,0.0,2.0,98,0.00,,,0.00,meteohub,2013-09-02 08:07:00,
2013-09-02 04:12:00,72.9,72.3,29.95,South,191,0.0,3.0,98,0.00,,,0.00,meteohub,2013-09-02 08:12:00,
2013-09-02 04:17:00,72.9,72.3,29.94,South,191,2.0,3.0,98,0.00,,,0.00,meteohub,2013-09-02 08:17:00,
2013-09-02 04:22:00,72.9,72.3,29.94,South,191,0.0,3.0,98,0.00,,,0.00,meteohub,2013-09-02 08:22:00,
2013-09-02 04:27:00,72.9,72.3,29.94,SSW,192,0.0,3.0,98,0.00,,,0.00,meteohub,2013-09-02 08:27:00,
2013-09-02 04:32:00,72.7,72.1,29.94,SSW,192,0.0,3.0,98,0.00,,,0.00,meteohub,2013-09-02 08:32:00,
2013-09-02 04:37:00,72.7,72.1,29.95,SSW,192,0.0,3.0,98,0.00,,,0.00,meteohub,2013-09-02 08:37:00,
2013-09-02 04:42:00,72.7,72.1,29.95,SSW,192,1.0,0.0,98,0.00,,,0.00,meteohub,2013-09-02 08:42:00,
2013-09-02 04:47:00,72.7,72.1,29.95,South,191,0.0,2.0,98,0.00,,,0.00,meteohub,2013-09-02 08:47:00,
2013-09-02 04:52:00,72.7,72.1,29.95,SSW,192,0.0,2.0,98,0.00,,,0.00,meteohub,2013-09-02 08:52:00,
2013-09-02 04:57:00,72.7,72.1,29.95,SSW,192,0.0,2.0,98,0.00,,,0.00,meteohub,2013-09-02 08:57:00,
2013-09-02 05:02:00,72.7,72.1,29.95,South,191,0.0,2.0,98,0.00,,,0.00,meteohub,2013-09-02 09:02:00,
2013-09-02 05:07:00,72.5,72.0,29.95,South,191,0.0,0.0,98,0.00,,,0.00,meteohub,2013-09-02 09:07:00,
2013-09-02 05:12:00,72.3,71.8,29.95,South,191,0.0,0.0,98,0.00,,,0.00,meteohub,2013-09-02 09:12:00,
2013-09-02 05:17:00,72.3,71.8,29.95,South,191,0.0,0.0,98,0.00,,,0.00,meteohub,2013-09-02 09:17:00,
2013-09-02 05:22:00,72.1,71.2,29.95,South,191,0.0,0.0,97,0.00,,,0.00,meteohub,2013-09-02 09:22:00,
2013-09-02 05:27:00,72.1,71.6,29.95,South,191,0.0,0.0,98,0.00,,,0.00,meteohub,2013-09-02 09:27:00,
2013-09-02 05:32:00,72.1,71.6,29.95,South,191,0.0,0.0,98,0.00,,,0.00,meteohub,2013-09-02 09:32:00,
2013-09-02 05:37:00,72.1,71.6,29.95,SSW,192,0.0,3.0,98,0.00,,,0.00,meteohub,2013-09-02 09:37:00,
2013-09-02 05:42:00,72.1,71.6,29.95,SSW,192,0.0,3.0,98,0.00,,,0.00,meteohub,2013-09-02 09:42:00,
2013-09-02 05:47:00,72.1,71.6,29.95,SSW,192,0.0,3.0,98,0.00,,,0.00,meteohub,2013-09-02 09:47:00,
2013-09-02 05:52:00,72.1,71.6,29.94,SSW,192,0.0,1.0,98,0.00,,,0.00,meteohub,2013-09-02 09:52:00,
2013-09-02 05:57:00,72.1,71.6,29.94,SSW,192,0.0,1.0,98,0.00,,,0.00,meteohub,2013-09-02 09:57:00,
2013-09-02 06:02:00,72.0,71.4,29.94,South,191,0.0,1.0,98,0.00,,,0.00,meteohub,2013-09-02 10:02:00,
2013-09-02 06:07:00,72.0,71.4,29.94,South,191,0.0,0.0,98,0.00,,,0.00,meteohub,2013-09-02 10:07:00,
2013-09-02 06:12:00,72.0,71.4,29.94,South,191,0.0,0.0,98,0.00,,,0.00,meteohub,2013-09-02 10:12:00,
2013-09-02 06:17:00,71.8,71.2,29.95,South,191,0.0,0.0,98,0.00,,,0.00,meteohub,2013-09-02 10:17:00,
2013-09-02 06:22:00,72.0,71.4,29.95,SSW,192,0.0,0.0,98,0.00,,,0.00,meteohub,2013-09-02 10:22:00,
2013-09-02 06:32:00,72.0,71.4,29.95,South,191,0.0,1.0,98,0.00,,,0.00,meteohub,2013-09-02 10:32:00,
2013-09-02 06:37:00,72.0,71.4,29.95,SSW,192,0.0,1.0,98,0.00,,,0.00,meteohub,2013-09-02 10:37:00,
2013-09-02 06:42:00,72.0,71.4,29.95,South,191,0.0,1.0,98,0.00,,,0.00,meteohub,2013-09-02 10:42:00,
2013-09-02 06:47:00,71.8,71.2,29.96,South,191,0.0,2.0,98,0.00,,,0.00,meteohub,2013-09-02 10:47:00,
2013-09-02 06:52:00,71.8,71.2,29.95,South,191,0.0,2.0,98,0.00,,,0.00,meteohub,2013-09-02 10:52:00,
2013-09-02 06:57:00,71.8,71.2,29.95,South,191,0.0,0.0,98,0.00,,,0.00,meteohub,2013-09-02 10:57:00,
2013-09-02 07:02:00,71.8,71.2,29.95,South,191,0.0,0.0,98,0.00,,,0.00,meteohub,2013-09-02 11:02:00,
2013-09-02 07:12:00,71.6,71.1,29.95,South,191,0.0,0.0,98,0.00,,,0.00,meteohub,2013-09-02 11:12:00,
2013-09-02 07:17:00,71.6,71.1,29.95,SSW,192,0.0,0.0,98,0.00,,,0.00,meteohub,2013-09-02 11:17:00,
2013-09-02 07:22:00,71.6,71.1,29.96,South,191,0.0,0.0,98,0.00,,,0.00,meteohub,2013-09-02 11:22:00,
2013-09-02 07:27:00,71.6,71.1,29.95,South,191,0.0,0.0,98,0.00,,,0.00,meteohub,2013-09-02 11:27:00,
2013-09-02 07:32:00,71.8,71.2,29.96,South,191,0.0,0.0,98,0.00,,,0.00,meteohub,2013-09-02 11:32:00,
2013-09-02 07:37:00,71.8,71.2,29.96,South,191,0.0,0.0,98,0.00,,,0.00,meteohub,2013-09-02 11:37:00,
2013-09-02 07:42:00,72.0,71.6,29.96,South,191,0.0,0.0,99,0.00,,,0.00,meteohub,2013-09-02 11:42:00,
2013-09-02 07:47:00,72.1,71.8,29.96,South,191,2.0,0.0,99,0.00,,,0.00,meteohub,2013-09-02 11:47:00,
2013-09-02 07:52:00,72.3,72.0,29.96,South,191,0.0,3.0,99,0.00,,,0.00,meteohub,2013-09-02 11:52:00,
2013-09-02 07:57:00,72.7,72.3,29.96,South,191,0.0,3.0,99,0.00,,,0.00,meteohub,2013-09-02 11:57:00,
2013-09-02 08:02:00,72.9,72.5,29.96,South,191,4.0,4.0,99,0.00,,,0.00,meteohub,2013-09-02 12:02:00,
2013-09-02 08:07:00,73.0,72.7,29.97,South,191,0.0,5.0,99,0.00,,,0.00,meteohub,2013-09-02 12:07:00,
2013-09-02 08:12:00,73.0,72.7,29.97,South,191,0.0,5.0,99,0.00,,,0.00,meteohub,2013-09-02 12:12:00,
2013-09-02 08:17:00,73.2,72.9,29.97,South,191,0.0,5.0,99,0.00,,,0.00,meteohub,2013-09-02 12:17:00,
2013-09-02 08:22:00,73.6,73.2,29.97,South,191,0.0,5.0,99,0.00,,,0.00,meteohub,2013-09-02 12:22:00,
2013-09-02 08:27:00,73.8,73.2,29.97,South,191,0.0,5.0,98,0.00,,,0.00,meteohub,2013-09-02 12:27:00,
2013-09-02 08:32:00,73.9,73.6,29.98,South,191,0.0,4.0,99,0.00,,,0.00,meteohub,2013-09-02 12:32:00,
2013-09-02 08:37:00,74.1,73.6,29.98,South,191,0.0,4.0,98,0.00,,,0.00,meteohub,2013-09-02 12:37:00,
2013-09-02 08:42:00,74.7,74.1,29.98,South,191,1.0,6.0,98,0.00,,,0.00,meteohub,2013-09-02 12:42:00,
2013-09-02 08:47:00,75.0,74.5,29.98,South,191,0.0,6.0,98,0.00,,,0.00,meteohub,2013-09-02 12:47:00,
2013-09-02 08:52:00,75.4,74.8,29.98,SSW,194,0.0,6.0,98,0.00,,,0.00,meteohub,2013-09-02 12:52:00,
2013-09-02 08:57:00,75.9,75.4,29.98,SSW,194,0.0,6.0,98,0.00,,,0.00,meteohub,2013-09-02 12:57:00,
2013-09-02 09:02:00,76.3,75.4,29.98,SSW,204,4.0,6.0,97,0.00,,,0.00,meteohub,2013-09-02 13:02:00,
2013-09-02 09:12:00,77.4,75.7,29.98,WSW,238,1.0,6.0,95,0.00,,,0.00,meteohub,2013-09-02 13:12:00,
2013-09-02 09:17:00,78.1,76.5,29.99,WSW,238,1.0,7.0,95,0.00,,,0.00,meteohub,2013-09-02 13:17:00,
2013-09-02 09:22:00,78.6,76.1,29.99,WSW,238,1.0,7.0,92,0.00,,,0.00,meteohub,2013-09-02 13:22:00,
2013-09-02 09:27:00,79.2,76.6,29.99,WSW,238,0.0,6.0,92,0.00,,,0.00,meteohub,2013-09-02 13:27:00,
2013-09-02 09:32:00,79.9,77.0,29.99,WSW,238,4.0,6.0,91,0.00,,,0.00,meteohub,2013-09-02 13:32:00,
2013-09-02 09:37:00,80.4,76.8,29.99,WNW,282,7.0,7.0,89,0.00,,,0.00,meteohub,2013-09-02 13:37:00,
2013-09-02 09:42:00,80.8,76.3,29.99,West,269,6.0,8.0,86,0.00,,,0.00,meteohub,2013-09-02 13:42:00,
2013-09-02 09:47:00,81.1,76.5,29.99,WSW,258,1.0,8.0,86,0.00,,,0.00,meteohub,2013-09-02 13:47:00,
2013-09-02 09:52:00,81.7,76.3,29.99,SW,235,0.0,8.0,84,0.00,,,0.00,meteohub,2013-09-02 13:52:00,
2013-09-02 09:57:00,82.0,77.4,29.99,SSW,207,4.0,8.0,86,0.00,,,0.00,meteohub,2013-09-02 13:57:00,
2013-09-02 10:02:00,82.6,77.2,29.99,WSW,242,2.0,8.0,84,0.00,,,0.00,meteohub,2013-09-02 14:02:00,
2013-09-02 10:07:00,82.9,77.2,29.99,NW,311,1.0,10.0,83,0.00,,,0.00,meteohub,2013-09-02 14:07:00,
2013-09-02 10:12:00,83.1,76.3,29.99,SW,229,6.0,11.0,80,0.00,,,0.00,meteohub,2013-09-02 14:12:00,
2013-09-02 10:17:00,83.5,76.3,29.99,WNW,300,2.0,12.0,79,0.00,,,0.00,meteohub,2013-09-02 14:17:00,
2013-09-02 10:22:00,83.7,76.8,29.99,WSW,248,4.0,12.0,80,0.00,,,0.00,meteohub,2013-09-02 14:22:00,
2013-09-02 10:27:00,84.0,76.1,29.99,West,270,9.0,12.0,77,0.00,,,0.00,meteohub,2013-09-02 14:27:00,
2013-09-02 10:32:00,84.6,77.4,29.99,WSW,247,5.0,11.0,79,0.00,,,0.00,meteohub,2013-09-02 14:32:00,
2013-09-02 10:37:00,84.7,76.6,29.99,WSW,250,3.0,10.0,77,0.00,,,0.00,meteohub,2013-09-02 14:37:00,
2013-09-02 10:42:00,85.1,75.9,29.99,West,271,7.0,12.0,74,0.00,,,0.00,meteohub,2013-09-02 14:42:00,
2013-09-02 10:47:00,84.9,76.5,29.99,WSW,243,2.0,12.0,76,0.00,,,0.00,meteohub,2013-09-02 14:47:00,
2013-09-02 10:52:00,85.1,76.6,30.00,West,263,4.0,12.0,76,0.00,,,0.00,meteohub,2013-09-02 14:52:00,
2013-09-02 10:57:00,85.5,76.3,30.00,West,268,1.0,10.0,74,0.00,,,0.00,meteohub,2013-09-02 14:57:00,
2013-09-02 11:02:00,85.8,77.0,29.99,West,275,9.0,11.0,75,0.00,,,0.00,meteohub,2013-09-02 15:02:00,
2013-09-02 11:07:00,86.2,76.5,29.99,NW,323,5.0,11.0,73,0.00,,,0.00,meteohub,2013-09-02 15:07:00,
2013-09-02 11:12:00,86.4,76.6,29.99,NNW,333,2.0,11.0,73,0.00,,,0.00,meteohub,2013-09-02 15:12:00,
2013-09-02 11:17:00,86.5,77.2,29.99,NW,326,1.0,11.0,74,0.00,,,0.00,meteohub,2013-09-02 15:17:00,
2013-09-02 11:22:00,86.7,76.6,29.99,South,184,3.0,11.0,72,0.00,,,0.00,meteohub,2013-09-02 15:22:00,
2013-09-02 11:27:00,87.1,76.5,29.99,WSW,258,8.0,8.0,71,0.00,,,0.00,meteohub,2013-09-02 15:27:00,
2013-09-02 11:32:00,87.1,75.7,29.99,WSW,254,1.0,9.0,69,0.00,,,0.00,meteohub,2013-09-02 15:32:00,
2013-09-02 11:37:00,87.4,76.5,29.99,West,263,3.0,12.0,70,0.01,,,0.01,meteohub,2013-09-02 15:37:00,
2013-09-02 11:42:00,87.3,75.9,29.99,West,263,0.0,12.0,69,0.01,,,0.01,meteohub,2013-09-02 15:42:00,
2013-09-02 11:47:00,87.4,76.8,29.99,West,279,0.0,11.0,71,0.01,,,0.01,meteohub,2013-09-02 15:47:00,
2013-09-02 11:52:00,87.6,75.7,29.99,SW,235,1.0,11.0,68,0.01,,,0.01,meteohub,2013-09-02 15:52:00,
2013-09-02 11:57:00,87.6,75.7,29.99,SW,219,5.0,11.0,68,0.01,,,0.01,meteohub,2013-09-02 15:57:00,
2013-09-02 12:02:00,87.4,75.9,29.99,WSW,246,8.0,13.0,69,0.01,,,0.01,meteohub,2013-09-02 16:02:00,
2013-09-02 12:07:00,87.4,77.4,29.98,West,266,0.0,13.0,72,0.01,,,0.01,meteohub,2013-09-02 16:07:00,
2013-09-02 12:12:00,88.0,75.6,29.98,West,263,7.0,11.0,67,0.01,,,0.01,meteohub,2013-09-02 16:12:00,
2013-09-02 12:17:00,88.2,76.6,29.98,NNW,343,9.0,11.0,69,0.01,,,0.01,meteohub,2013-09-02 16:17:00,
2013-09-02 12:22:00,88.5,75.7,29.98,NW,322,3.0,11.0,66,0.01,,,0.01,meteohub,2013-09-02 16:22:00,
2013-09-02 12:27:00,89.1,76.6,29.98,WSW,253,1.0,10.0,67,0.01,,,0.01,meteohub,2013-09-02 16:27:00,
2013-09-02 12:32:00,89.4,77.5,29.98,South,169,0.0,11.0,68,0.00,,,0.01,meteohub,2013-09-02 16:32:00,
2013-09-02 12:37:00,89.4,76.6,29.98,West,274,6.0,11.0,66,0.00,,,0.01,meteohub,2013-09-02 16:37:00,
2013-09-02 12:42:00,89.1,76.6,29.97,SW,229,0.0,11.0,67,0.00,,,0.01,meteohub,2013-09-02 16:42:00,
2013-09-02 12:47:00,89.2,77.4,29.97,SSW,202,9.0,9.0,68,0.00,,,0.01,meteohub,2013-09-02 16:47:00,
2013-09-02 12:52:00,89.4,76.1,29.97,SW,234,4.0,11.0,65,0.00,,,0.01,meteohub,2013-09-02 16:52:00,
2013-09-02 12:57:00,90.0,76.6,29.97,WNW,302,1.0,11.0,65,0.00,,,0.01,meteohub,2013-09-02 16:57:00,
2013-09-02 13:02:00,89.8,76.8,29.97,WNW,288,3.0,11.0,66,0.00,,,0.01,meteohub,2013-09-02 17:02:00,
2013-09-02 13:07:00,89.6,75.7,29.97,NW,320,8.0,8.0,64,0.00,,,0.01,meteohub,2013-09-02 17:07:00,
2013-09-02 13:12:00,89.8,75.9,29.97,SW,234,4.0,10.0,64,0.00,,,0.01,meteohub,2013-09-02 17:12:00,
2013-09-02 13:17:00,90.3,74.5,29.97,SW,228,0.0,10.0,60,0.00,,,0.01,meteohub,2013-09-02 17:17:00,
2013-09-02 13:22:00,90.7,75.4,29.96,SW,221,8.0,11.0,61,0.00,,,0.01,meteohub,2013-09-02 17:22:00,
2013-09-02 13:27:00,91.0,75.2,29.96,WNW,298,7.0,11.0,60,0.00,,,0.01,meteohub,2013-09-02 17:27:00,
2013-09-02 13:32:00,91.4,75.6,29.96,WSW,253,0.0,11.0,60,0.00,,,0.01,meteohub,2013-09-02 17:32:00,
2013-09-02 13:37:00,91.6,75.7,29.96,NW,319,3.0,9.0,60,0.00,,,0.01,meteohub,2013-09-02 17:37:00,
2013-09-02 13:42:00,91.8,73.8,29.96,SSW,206,0.0,9.0,56,0.00,,,0.01,meteohub,2013-09-02 17:42:00,
2013-09-02 13:47:00,91.8,75.4,29.96,West,267,3.0,10.0,59,0.00,,,0.01,meteohub,2013-09-02 17:47:00,
2013-09-02 13:52:00,91.9,75.6,29.95,WSW,248,3.0,10.0,59,0.00,,,0.01,meteohub,2013-09-02 17:52:00,
2013-09-02 14:02:00,92.5,75.6,29.94,WNW,296,5.0,9.0,58,0.00,,,0.01,meteohub,2013-09-02 18:02:00,
2013-09-02 14:07:00,92.5,75.6,29.94,SW,219,0.0,10.0,58,0.00,,,0.01,meteohub,2013-09-02 18:07:00,
2013-09-02 14:12:00,92.3,73.8,29.94,West,263,8.0,10.0,55,0.00,,,0.01,meteohub,2013-09-02 18:12:00,
2013-09-02 14:17:00,92.1,73.6,29.94,West,270,0.0,11.0,55,0.00,,,0.01,meteohub,2013-09-02 18:17:00,
2013-09-02 14:22:00,92.1,73.0,29.94,WNW,294,2.0,11.0,54,0.00,,,0.01,meteohub,2013-09-02 18:22:00,
2013-09-02 14:27:00,91.6,74.7,29.94,West,272,0.0,11.0,58,0.00,,,0.01,meteohub,2013-09-02 18:27:00,
2013-09-02 14:32:00,91.8,74.3,29.93,West,271,7.0,10.0,57,0.00,,,0.01,meteohub,2013-09-02 18:32:00,
2013-09-02 14:37:00,92.3,74.3,29.93,WSW,256,2.0,10.0,56,0.00,,,0.01,meteohub,2013-09-02 18:37:00,
2013-09-02 14:42:00,92.5,73.9,29.93,West,274,2.0,12.0,55,0.00,,,0.01,meteohub,2013-09-02 18:42:00,
2013-09-02 14:47:00,92.8,74.8,29.93,WSW,239,5.0,12.0,56,0.00,,,0.01,meteohub,2013-09-02 18:47:00,
2013-09-02 14:52:00,92.7,73.0,29.93,West,265,3.0,12.0,53,0.00,,,0.01,meteohub,2013-09-02 18:52:00,
2013-09-02 14:57:00,92.5,73.9,29.92,WSW,238,2.0,8.0,55,0.00,,,0.01,meteohub,2013-09-02 18:57:00,
2013-09-02 15:02:00,92.1,73.6,29.92,SW,236,2.0,8.0,55,0.00,,,0.01,meteohub,2013-09-02 19:02:00,
2013-09-02 15:07:00,91.6,73.0,29.92,WSW,250,0.0,9.0,55,0.00,,,0.01,meteohub,2013-09-02 19:07:00,
2013-09-02 15:12:00,91.2,73.8,29.92,SSW,213,0.0,9.0,57,0.00,,,0.01,meteohub,2013-09-02 19:12:00,
2013-09-02 15:17:00,90.7,73.4,29.91,NW,313,5.0,9.0,57,0.00,,,0.01,meteohub,2013-09-02 19:17:00,
2013-09-02 15:22:00,90.1,74.3,29.91,North,355,0.0,7.0,60,0.00,,,0.01,meteohub,2013-09-02 19:22:00,
2013-09-02 15:27:00,89.8,74.5,29.91,North,350,0.0,6.0,61,0.00,,,0.01,meteohub,2013-09-02 19:27:00,
2013-09-02 15:32:00,89.1,74.3,29.91,North,350,0.0,6.0,62,0.00,,,0.01,meteohub,2013-09-02 19:32:00,
2013-09-02 15:37:00,88.9,74.7,29.90,North,350,0.0,4.0,63,0.00,,,0.01,meteohub,2013-09-02 19:37:00,
2013-09-02 15:42:00,88.9,74.7,29.90,North,350,0.0,3.0,63,0.00,,,0.01,meteohub,2013-09-02 19:42:00,
2013-09-02 15:47:00,89.2,77.4,29.90,North,350,0.0,2.0,68,0.00,,,0.01,meteohub,2013-09-02 19:47:00,
2013-09-02 15:52:00,89.4,76.1,29.90,North,350,0.0,2.0,65,0.00,,,0.01,meteohub,2013-09-02 19:52:00,
2013-09-02 15:57:00,89.2,76.8,29.90,ENE,64,1.0,2.0,67,0.00,,,0.01,meteohub,2013-09-02 19:57:00,
2013-09-02 16:02:00,88.5,76.6,29.90,ENE,61,2.0,5.0,68,0.00,,,0.01,meteohub,2013-09-02 20:02:00,
2013-09-02 16:07:00,87.6,76.1,29.91,West,266,3.0,5.0,69,0.00,,,0.01,meteohub,2013-09-02 20:07:00,
2013-09-02 16:12:00,86.7,76.6,29.91,NNW,331,2.0,8.0,72,0.00,,,0.01,meteohub,2013-09-02 20:12:00,
2013-09-02 16:17:00,85.5,77.4,29.90,NNE,16,0.0,12.0,77,0.03,,,0.04,meteohub,2013-09-02 20:17:00,
2013-09-02 16:22:00,84.7,79.0,29.90,East,94,0.0,12.0,83,0.04,,,0.05,meteohub,2013-09-02 20:22:00,
2013-09-02 16:27:00,84.6,79.2,29.90,East,95,1.0,10.0,84,0.04,,,0.05,meteohub,2013-09-02 20:27:00,
2013-09-02 16:32:00,84.4,78.6,29.91,East,95,0.0,5.0,83,0.04,,,0.05,meteohub,2013-09-02 20:32:00,
2013-09-02 16:37:00,84.6,78.8,29.90,NNE,30,2.0,5.0,83,0.04,,,0.05,meteohub,2013-09-02 20:37:00,
2013-09-02 16:42:00,84.6,79.5,29.90,NE,49,1.0,5.0,85,0.04,,,0.05,meteohub,2013-09-02 20:42:00,
2013-09-02 16:47:00,84.4,79.3,29.90,ENE,78,2.0,5.0,85,0.04,,,0.05,meteohub,2013-09-02 20:47:00,
2013-09-02 16:52:00,84.2,79.2,29.90,ENE,62,0.0,5.0,85,0.04,,,0.05,meteohub,2013-09-02 20:52:00,
2013-09-02 16:57:00,84.4,79.7,29.89,SE,134,1.0,6.0,86,0.04,,,0.05,meteohub,2013-09-02 20:57:00,
2013-09-02 17:02:00,84.4,79.3,29.89,ESE,122,1.0,6.0,85,0.04,,,0.05,meteohub,2013-09-02 21:02:00,
2013-09-02 17:07:00,84.7,79.7,29.89,East,98,0.0,6.0,85,0.04,,,0.05,meteohub,2013-09-02 21:07:00,
2013-09-02 17:12:00,84.9,79.2,29.89,East,98,3.0,6.0,83,0.04,,,0.05,meteohub,2013-09-02 21:12:00,
2013-09-02 17:17:00,85.1,79.3,29.89,East,99,3.0,4.0,83,0.00,,,0.05,meteohub,2013-09-02 21:17:00,
2013-09-02 17:22:00,85.1,79.3,29.89,East,101,3.0,4.0,83,0.00,,,0.05,meteohub,2013-09-02 21:22:00,
2013-09-02 17:27:00,85.3,79.2,29.90,East,101,0.0,4.0,82,0.00,,,0.05,meteohub,2013-09-02 21:27:00,
2013-09-02 17:32:00,85.6,79.9,29.90,East,101,0.0,4.0,83,0.00,,,0.05,meteohub,2013-09-02 21:32:00,
2013-09-02 17:37:00,86.2,80.1,29.91,East,96,0.0,4.0,82,0.00,,,0.05,meteohub,2013-09-02 21:37:00,
2013-09-02 17:42:00,86.0,79.5,29.90,SSE,155,2.0,4.0,81,0.00,,,0.05,meteohub,2013-09-02 21:42:00,
2013-09-02 17:47:00,85.3,78.1,29.90,ESE,121,5.0,11.0,79,0.00,,,0.05,meteohub,2013-09-02 21:47:00,
2013-09-02 17:52:00,84.4,77.9,29.90,SSE,155,9.0,11.0,81,0.00,,,0.05,meteohub,2013-09-02 21:52:00,
2013-09-02 17:57:00,84.0,78.3,29.90,ESE,108,1.0,11.0,83,0.00,,,0.05,meteohub,2013-09-02 21:57:00,
2013-09-02 18:02:00,83.8,78.1,29.90,SE,144,2.0,11.0,83,0.00,,,0.05,meteohub,2013-09-02 22:02:00,
2013-09-02 18:07:00,83.5,77.7,29.90,SSE,155,2.0,10.0,83,0.00,,,0.05,meteohub,2013-09-02 22:07:00,
2013-09-02 18:12:00,83.1,77.4,29.90,SE,138,4.0,11.0,83,0.00,,,0.05,meteohub,2013-09-02 22:12:00,
2013-09-02 18:17:00,82.8,77.4,29.90,SSE,150,4.0,11.0,84,0.00,,,0.05,meteohub,2013-09-02 22:17:00,
2013-09-02 18:22:00,82.6,77.2,29.91,SE,130,3.0,11.0,84,0.00,,,0.05,meteohub,2013-09-02 22:22:00,
2013-09-02 18:27:00,82.2,76.8,29.90,SE,139,0.0,8.0,84,0.00,,,0.05,meteohub,2013-09-02 22:27:00,
2013-09-02 18:32:00,82.2,76.8,29.91,NE,50,3.0,8.0,84,0.00,,,0.05,meteohub,2013-09-02 22:32:00,
2013-09-02 18:37:00,81.9,73.9,29.92,North,355,3.0,10.0,77,0.00,,,0.05,meteohub,2013-09-02 22:37:00,
2013-09-02 18:42:00,81.1,73.6,29.91,NE,46,4.0,10.0,78,0.00,,,0.05,meteohub,2013-09-02 22:42:00,
2013-09-02 18:47:00,80.2,74.3,29.92,North,11,0.0,10.0,82,0.00,,,0.05,meteohub,2013-09-02 22:47:00,
2013-09-02 18:52:00,79.2,74.3,29.93,South,179,1.0,19.0,85,0.14,,,0.19,meteohub,2013-09-02 22:52:00,
2013-09-02 18:57:00,78.4,73.9,29.94,South,179,0.0,19.0,86,0.16,,,0.20,meteohub,2013-09-02 22:57:00,
2013-09-02 19:02:00,77.4,72.5,29.94,South,179,2.0,19.0,85,0.17,,,0.22,meteohub,2013-09-02 23:02:00,
2013-09-02 19:07:00,76.5,73.0,29.94,East,95,0.0,6.0,89,0.23,,,0.28,meteohub,2013-09-02 23:07:00,
2013-09-02 19:12:00,75.7,72.7,29.92,ESE,103,2.0,6.0,90,0.24,,,0.29,meteohub,2013-09-02 23:12:00,
2013-09-02 19:17:00,75.4,72.9,29.91,SSE,150,5.0,6.0,92,0.30,,,0.35,meteohub,2013-09-02 23:17:00,
2013-09-02 19:22:00,74.8,72.3,29.92,SSE,150,2.0,7.0,92,0.32,,,0.37,meteohub,2013-09-02 23:22:00,
2013-09-02 19:27:00,74.7,72.5,29.94,South,171,9.0,9.0,93,0.32,,,0.37,meteohub,2013-09-02 23:27:00,
2013-09-02 19:32:00,74.5,72.3,29.94,SSE,167,3.0,14.0,93,0.35,,,0.40,meteohub,2013-09-02 23:32:00,
2013-09-02 19:37:00,74.3,72.5,29.94,SSE,156,2.0,14.0,94,0.35,,,0.40,meteohub,2013-09-02 23:37:00,
2013-09-02 19:42:00,74.5,72.7,29.94,SE,140,5.0,14.0,94,0.35,,,0.40,meteohub,2013-09-02 23:42:00,
2013-09-02 19:47:00,74.5,73.0,29.94,SE,140,2.0,12.0,95,0.30,,,0.40,meteohub,2013-09-02 23:47:00,
2013-09-02 19:52:00,74.5,73.0,29.94,SE,136,0.0,12.0,95,0.21,,,0.40,meteohub,2013-09-02 23:52:00,
2013-09-02 19:57:00,74.7,73.2,29.94,SE,136,3.0,8.0,95,0.19,,,0.40,meteohub,2013-09-02 23:57:00,
2013-09-02 20:02:00,74.7,73.2,29.94,SE,136,0.0,8.0,95,0.16,,,0.40,meteohub,2013-09-03 00:02:00,
2013-09-02 20:07:00,74.8,73.2,29.94,SE,136,1.0,8.0,95,0.12,,,0.40,meteohub,2013-09-03 00:07:00,
2013-09-02 20:12:00,74.8,73.2,29.95,SE,136,1.0,4.0,95,0.09,,,0.40,meteohub,2013-09-03 00:12:00,
2013-09-02 20:17:00,74.8,73.2,29.95,SE,136,0.0,5.0,95,0.04,,,0.40,meteohub,2013-09-03 00:17:00,
2013-09-02 20:22:00,74.8,73.2,29.95,SE,136,0.0,5.0,95,0.04,,,0.41,meteohub,2013-09-03 00:22:00,
2013-09-02 20:27:00,74.8,73.2,29.94,SE,136,3.0,5.0,95,0.04,,,0.43,meteohub,2013-09-03 00:27:00,
2013-09-02 20:32:00,74.8,73.2,29.94,SE,136,0.0,4.0,95,0.07,,,0.47,meteohub,2013-09-03 00:32:00,
2013-09-02 20:37:00,74.7,73.2,29.94,SE,136,0.0,4.0,95,0.08,,,0.48,meteohub,2013-09-03 00:37:00,
2013-09-02 20:42:00,74.7,73.4,29.93,SE,136,0.0,4.0,96,0.11,,,0.51,meteohub,2013-09-03 00:42:00,
2013-09-02 20:47:00,74.7,73.4,29.93,SE,136,0.0,2.0,96,0.12,,,0.52,meteohub,2013-09-03 00:47:00,
2013-09-02 20:52:00,74.7,73.4,29.93,SE,136,0.0,0.0,96,0.12,,,0.52,meteohub,2013-09-03 00:52:00,
2013-09-02 20:57:00,74.7,73.4,29.92,SE,136,0.0,0.0,96,0.12,,,0.52,meteohub,2013-09-03 00:57:00,
2013-09-02 21:02:00,74.5,73.2,29.93,SE,136,0.0,0.0,96,0.12,,,0.52,meteohub,2013-09-03 01:02:00,
2013-09-02 21:07:00,74.5,73.2,29.93,SE,136,0.0,0.0,96,0.12,,,0.52,meteohub,2013-09-03 01:07:00,
2013-09-02 21:12:00,74.5,73.2,29.93,SE,136,0.0,2.0,96,0.12,,,0.52,meteohub,2013-09-03 01:12:00,
2013-09-02 21:17:00,74.3,73.0,29.93,SE,136,0.0,2.0,96,0.12,,,0.52,meteohub,2013-09-03 01:17:00,
2013-09-02 21:22:00,74.3,73.0,29.94,SE,136,0.0,2.0,96,0.10,,,0.52,meteohub,2013-09-03 01:22:00,
2013-09-02 21:27:00,74.3,73.0,29.94,SE,136,2.0,3.0,96,0.08,,,0.52,meteohub,2013-09-03 01:27:00,
2013-09-02 21:32:00,74.5,73.6,29.94,SE,136,0.0,4.0,97,0.05,,,0.52,meteohub,2013-09-03 01:32:00,
2013-09-02 21:37:00,74.3,73.4,29.94,SE,136,2.0,4.0,97,0.02,,,0.52,meteohub,2013-09-03 01:37:00,
2013-09-02 21:42:00,74.3,73.0,29.94,SE,136,0.0,4.0,96,0.00,,,0.52,meteohub,2013-09-03 01:42:00,
2013-09-02 21:47:00,74.3,73.4,29.93,SE,136,2.0,3.0,97,0.00,,,0.52,meteohub,2013-09-03 01:47:00,
2013-09-02 21:52:00,74.3,73.4,29.93,SE,136,0.0,2.0,97,0.00,,,0.52,meteohub,2013-09-03 01:52:00,
2013-09-02 21:57:00,74.3,73.4,29.93,SE,136,0.0,2.0,97,0.00,,,0.52,meteohub,2013-09-03 01:57:00,
2013-09-02 22:02:00,74.3,73.4,29.94,SE,136,0.0,2.0,97,0.00,,,0.52,meteohub,2013-09-03 02:02:00,
2013-09-02 22:07:00,74.3,73.4,29.93,SE,136,0.0,2.0,97,0.00,,,0.52,meteohub,2013-09-03 02:07:00,
2013-09-02 22:12:00,74.1,73.2,29.93,SE,136,0.0,2.0,97,0.00,,,0.52,meteohub,2013-09-03 02:12:00,
2013-09-02 22:17:00,74.1,73.2,29.94,SE,136,0.0,1.0,97,0.00,,,0.52,meteohub,2013-09-03 02:17:00,
2013-09-02 22:22:00,74.1,73.2,29.94,SE,136,0.0,0.0,97,0.00,,,0.52,meteohub,2013-09-03 02:22:00,
2013-09-02 22:27:00,74.1,73.2,29.94,SE,136,0.0,0.0,97,0.00,,,0.52,meteohub,2013-09-03 02:27:00,
2013-09-02 22:32:00,74.1,73.2,29.94,SE,136,0.0,0.0,97,0.00,,,0.52,meteohub,2013-09-03 02:32:00,
2013-09-02 22:37:00,74.1,73.2,29.93,SE,136,0.0,0.0,97,0.00,,,0.52,meteohub,2013-09-03 02:37:00,
2013-09-02 22:42:00,73.9,73.0,29.94,SE,136,0.0,0.0,97,0.00,,,0.52,meteohub,2013-09-03 02:42:00,
2013-09-02 22:47:00,73.9,73.0,29.94,SE,136,0.0,0.0,97,0.00,,,0.52,meteohub,2013-09-03 02:47:00,
2013-09-02 22:52:00,73.9,73.0,29.94,SE,136,0.0,0.0,97,0.00,,,0.52,meteohub,2013-09-03 02:52:00,
2013-09-02 22:57:00,73.9,73.0,29.94,SE,136,0.0,0.0,97,0.00,,,0.52,meteohub,2013-09-03 02:57:00,
2013-09-02 23:02:00,73.9,73.0,29.95,SE,136,0.0,0.0,97,0.00,,,0.52,meteohub,2013-09-03 03:02:00,
2013-09-02 23:07:00,73.9,73.0,29.94,SE,136,0.0,0.0,97,0.00,,,0.52,meteohub,2013-09-03 03:07:00,
2013-09-02 23:12:00,73.9,73.0,29.94,SE,136,0.0,0.0,97,0.00,,,0.52,meteohub,2013-09-03 03:12:00,
2013-09-02 23:22:00,73.9,73.0,29.94,SE,136,0.0,0.0,97,0.00,,,0.52,meteohub,2013-09-03 03:22:00,
2013-09-02 23:27:00,73.9,73.0,29.94,SE,136,0.0,0.0,97,0.00,,,0.52,meteohub,2013-09-03 03:27:00,
2013-09-02 23:32:00,73.9,73.0,29.94,SE,136,0.0,0.0,97,0.00,,,0.52,meteohub,2013-09-03 03:32:00,
2013-09-02 23:37:00,73.9,73.0,29.94,SE,136,0.0,0.0,97,0.00,,,0.52,meteohub,2013-09-03 03:37:00,
2013-09-02 23:42:00,73.9,73.0,29.94,SE,136,0.0,0.0,97,0.00,,,0.52,meteohub,2013-09-03 03:42:00,
2013-09-02 23:47:00,73.9,73.0,29.94,SE,136,0.0,0.0,97,0.00,,,0.52,meteohub,2013-09-03 03:47:00,
2013-09-02 23:52:00,73.9,73.4,29.93,SE,136,0.0,0.0,98,0.00,,,0.52,meteohub,2013-09-03 03:52:00,
2013-09-02 23:57:00,73.9,73.0,29.93,SE,136,0.0,0.0,97,0.00,,,0.52,meteohub,2013-09-03 03:57:00,